Location: Casteau
(50.5142°N, 4.0161°E)
Time: 03:53:54
(UTC+00:00)

CSL-04 Rocket - Pass Details

Date: 18 September 2020
Orbit: 806 x 860 km, 98.9° (Epoch: 29 October)

Event Time Altitude Azimuth Distance (km) Brightness Sun altitude
Rises 18:26:40 0° 161° (SSE) 3,359 6.5 -6.6°
Reaches altitude 10° 18:28:59 10° 161° (SSE) 2,437 5.8 -6.9°
Maximum altitude 18:34:24 88° 76° (ENE) 850 3.7 -7.8°
Drops below altitude 10° 18:39:57 10° 345° (NNW) 2,489 6.5 -8.7°
Sets 18:42:21 0° 345° (NNW) 3,435 7.3 -9.0°
